GW5966 Weather Reports


time (UTC)temp
C
wind
direction
speed
KPH
gust
KPH
rain 1hr
cm
rain 24hr
cm
rain mn
cm
humidity
%
barometer
mb
20260906094516 22 94 0.0 0.0 0.00 0.00 0.00 95 1012.9
20260906093024 22 94 0.0 0.0 0.00 0.00 0.00 95 1012.8
20260906091526 22 94 0.0 0.0 0.00 0.00 0.00 95 1012.9
20260906090008 22 94 0.0 0.0 0.00 0.00 0.00 95 1012.9
20260906084513 22 94 0.0 0.0 0.00 0.00 0.00 95 1012.7
20260906083017 22 94 0.0 0.0 0.00 0.00 0.00 95 1012.5
20260906081526 23 94 0.0 0.0 0.00 0.00 0.00 95 1012.5
20260906080030 23 94 0.0 1.6 0.00 0.00 0.00 95 1012.8
20260906074510 23 94 0.0 1.6 0.00 0.00 0.00 95 1012.8
20260906073012 23 94 0.0 0.0 0.00 0.00 0.00 95 1013.0
20260906071521 23 94 0.0 0.0 0.00 0.00 0.00 95 1013.0
20260906070027 23 94 0.0 0.0 0.00 0.00 0.00 95 1012.6
20260906064535 23 94 0.0 0.0 0.00 0.00 0.00 94 1012.6
20260906063012 23 94 0.0 0.0 0.00 0.00 0.00 94 1012.6
20260906061522 23 94 0.0 0.0 0.00 0.00 0.00 94 1012.7
20260906060017 23 94 0.0 0.0 0.00 0.00 0.00 94 1013.1
20260906054536 23 94 0.0 0.0 0.00 0.00 0.00 94 1013.1
20260906053029 23 94 0.0 0.0 0.00 0.00 0.00 94 1013.0
20260906051510 23 94 0.0 0.0 0.00 0.00 0.00 94 1013.0
20260906050014 23 94 0.0 0.0 0.00 0.00 0.00 94 1013.1
20260906044523 23 94 0.0 0.0 0.00 0.00 0.00 94 1013.2
20260906043033 23 94 0.0 0.0 0.00 0.00 0.00 94 1013.2
20260906041530 24 94 0.0 0.0 0.00 0.00 0.00 93 1013.0
20260906040012 24 94 0.0 0.0 0.00 0.00 0.00 93 1013.0
20260906034516 23 94 0.0 0.0 0.00 0.00 0.00 93 1013.2
20260906033025 24 94 0.0 0.0 0.00 0.00 0.00 92 1013.2
20260906031528 24 94 0.0 0.0 0.00 0.00 0.00 93 1013.2
20260906030032 25 94 0.0 0.0 0.00 0.00 0.00 93 1013.3
20260906024514 25 94 0.0 0.0 0.00 0.00 0.00 92 1013.3
20260906023018 25 94 0.0 0.0 0.00 0.00 0.00 91 1013.0
20260906021536 25 94 0.0 0.0 0.00 0.00 0.00 91 1012.9
20260906020034 25 94 0.0 0.0 0.00 0.00 0.00 90 1012.6
20260906014541 25 94 0.0 0.0 0.00 0.00 0.00 90 1012.2
20260906013042 26 94 0.0 0.0 0.00 0.00 0.00 89 1011.8
20260906011518 26 94 0.0 0.0 0.00 0.00 0.00 88 1011.8
20260906010028 26 94 0.0 0.0 0.00 0.00 0.00 87 1011.9
20260906004529 27 94 0.0 0.0 0.00 0.00 0.00 85 1011.8
20260906003034 27 94 0.0 0.0 0.00 0.00 0.00 83 1011.9
20260906001516 28 94 0.0 0.0 0.00 0.00 0.00 80 1011.7
20260906000015 28 94 0.0 4.8 0.00 0.00 0.00 77 1011.7
20260905234515 29 71 0.0 4.8 0.00 0.00 0.00 74 1011.7
20260905233012 30 90 0.0 9.7 0.00 0.00 0.00 73 1011.8
20260905231510 30 78 1.6 4.8 0.00 0.00 0.00 75 1011.8
20260905230015 31 94 1.6 11.3 0.00 0.00 0.00 75 1011.7
20260905224517 31 23 3.2 11.3 0.00 0.00 0.00 74 1011.8
20260905223006 31 67 3.2 12.9 0.00 0.00 0.00 74 1011.7
20260905221509 32 99 6.4 11.3 0.00 0.00 0.00 70 1011.7
20260905220014 33 325 4.8 8.0 0.00 0.00 0.00 67 1011.6
20260905214519 34 118 3.2 8.0 0.00 0.00 0.00 64 1011.7
20260905213019 34 19 3.2 11.3 0.00 0.00 0.00 63 1011.7
20260905211506 35 125 3.2 12.9 0.00 0.00 0.00 62 1011.8
20260905210008 35 212 4.8 9.7 0.00 0.00 0.00 65 1011.7
20260905204513 35 289 4.8 9.7 0.00 0.00 0.00 62 1011.8
20260905203016 35 350 3.2 8.0 0.00 0.00 0.00 62 1012.0
20260905201520 35 113 4.8 11.3 0.00 0.00 0.00 57 1011.9
20260905200004 35 130 3.2 14.5 0.00 0.00 0.00 58 1012.0
20260905194507 35 112 1.6 9.7 0.00 0.00 0.00 58 1011.9
20260905193012 35 78 4.8 12.9 0.00 0.00 0.00 58 1012.1
20260905191517 35 342 3.2 6.4 0.00 0.00 0.00 60 1012.5
20260905190031 36 18 4.8 14.5 0.00 0.00 0.00 54 1012.6
20260905184531 36 104 1.6 11.3 0.00 0.00 0.00 46 1012.7
20260905183010 36 214 1.6 9.7 0.00 0.00 0.00 49 1012.9
20260905181516 36 321 4.8 14.5 0.00 0.00 0.00 54 1013.2
20260905180025 35 165 1.6 12.9 0.00 0.00 0.00 53 1013.4
20260905174528 35 209 3.2 9.7 0.00 0.00 0.00 54 1013.6
20260905173027 35 230 6.4 9.7 0.00 0.00 0.00 54 1013.8
20260905171507 35 144 3.2 12.9 0.00 0.00 0.00 58 1014.0
20260905170016 35 248 4.8 8.0 0.00 0.00 0.00 55 1014.2
20260905164528 35 146 1.6 8.0 0.00 0.00 0.00 59 1014.4
20260905163028 34 159 1.6 4.8 0.00 0.00 0.00 59 1014.6
20260905161527 33 186 3.2 8.0 0.00 0.00 0.00 62 1014.6
20260905160017 33 108 1.6 8.0 0.00 0.00 0.00 64 1014.8
20260905154514 32 207 1.6 8.0 0.00 0.00 0.00 66 1014.9
20260905153030 32 221 1.6 8.0 0.00 0.00 0.00 67 1015.0
20260905151530 31 146 1.6 4.8 0.00 0.00 0.00 72 1015.1
20260905150009 30 169 1.6 4.8 0.00 0.00 0.00 74 1015.1
20260905144521 30 35 0.0 3.2 0.00 0.00 0.00 79 1014.8
20260905143020 28 127 0.0 3.2 0.00 0.00 0.00 83 1015.0
20260905141526 27 148 0.0 3.2 0.00 0.00 0.00 86 1015.1
20260905140029 27 241 3.2 4.8 0.00 0.00 0.00 86 1015.1
20260905134506 26 310 0.0 1.6 0.00 0.00 0.00 90 1015.2
20260905133015 25 310 0.0 0.0 0.00 0.00 0.00 93 1015.1
20260905131518 24 310 0.0 0.0 0.00 0.00 0.00 94 1015.1
20260905130031 23 310 0.0 0.0 0.00 0.00 0.00 93 1015.1
20260905124531 25 310 0.0 0.0 0.00 0.00 0.00 95 1015.2
20260905123008 23 310 0.0 0.0 0.00 0.00 0.00 95 1015.2
20260905121514 22 310 0.0 0.0 0.00 0.00 0.00 96 1015.1
20260905120022 21 310 0.0 0.0 0.00 0.00 0.00 96 1014.9
20260905114527 21 310 0.0 0.0 0.00 0.00 0.00 96 1014.9
20260905113030 21 310 0.0 0.0 0.00 0.00 0.00 95 1014.7
20260905111516 21 310 0.0 0.0 0.00 0.00 0.00 95 1014.6
20260905110016 21 310 0.0 0.0 0.00 0.00 0.00 95 1014.5
20260905104522 21 310 0.0 0.0 0.00 0.00 0.00 95 1014.4
20260905103025 21 310 0.0 0.0 0.00 0.00 0.00 95 1014.5
20260905101531 21 310 0.0 0.0 0.00 0.00 0.00 95 1014.5
20260905100012 21 310 0.0 0.0 0.00 0.00 0.00 95 1014.7